Location: Bédeille
(43.0872°N, 1.1041°E)
Time: 01:40:58
(UTC+00:00)

Cosmos 2219 Rocket - Pass Details

Date: 03 February 2023
Orbit: 826 x 848 km, 71.0° (Epoch: 27 March)

Event Time Altitude Azimuth Distance (km) Brightness Sun altitude
Rises 19:45:44 0° 216° (SW) 3,351 5.7 -28.6°
Reaches altitude 10° 19:48:12 10° 220° (SW) 2,423 5.0 -29.1°
Maximum altitude 19:53:38 56° 299° (WNW) 983 2.7 -30.1°
Enters shadow 19:54:47 47° 341° (NNW) 1,090 2.8 -30.3°
